Regional Weather Roundup
Issued by NWS

Home | Current Version | Previous Version | Graphics & Text | Print | Product List | Glossary On
Versions: 1 2 3 4 5 6 7 8 9 10 11 12 13 14 15 16 17 18 19 20 21 22 23 24 25 26 27 28 29 30 31 32 33 34 35 36 37 38 39 40 41 42 43 44 45 46 47 48 49 50
000
ASUS43 KOAX 221402
RWRNE

WEATHER ROUNDUP FOR NEBRASKA
NATIONAL WEATHER SERVICE OMAHA NE
900 AM CDT TUE JUL 22 2014

NOTES: SATELLITE DATA IS BEING USED TO AUGMENT CLOUD COVER ABOVE
       12000 FEET.
       "FAIR" INDICATES FEW OR NO CLOUDS BELOW 12,000 FEET WITH NO
       SIGNIFICANT WEATHER AND/OR OBSTRUCTIONS TO VISIBILITY.

  * THESE STATIONS DO NOT REPORT WEATHER SUCH AS RAIN...SNOW OR FOG.

NEZ001>004-019>022-054>056-221500-
NEBRASKA PANHANDLE

CITY           SKY/WX    TMP DP  RH WIND       PRES   REMARKS
SCOTTSBLUFF    SUNNY     74  59  59 E8        30.23S
ALLIANCE       SUNNY     73  60  63 NE9       30.21S
CHADRON        SUNNY     71  62  73 NW6       30.20R
KIMBALL        SUNNY     69  58  69 N13       30.26R
SIDNEY         SUNNY     73  53  49 NW6       30.25R
$$

NEZ057>060-069>072-079>082-221500-
SOUTHWEST NEBRASKA

CITY           SKY/WX    TMP DP  RH WIND       PRES   REMARKS
NORTH PLATTE   SUNNY     78  58  49 E15       30.09R
IMPERIAL       SUNNY     76  59  55 SE8       30.14R
LEXINGTON      SUNNY     79  62  56 E10       30.08S
MCCOOK         SUNNY     77  63  61 E15       30.09F
OGALLALA       SUNNY     75  59  56 E6        30.17R
$$

NEZ005>010-023>029-035>040-094-221500-
NORTH CENTRAL NEBRASKA

CITY           SKY/WX    TMP DP  RH WIND       PRES   REMARKS
VALENTINE      MOSUNNY   72  62  71 NE9       30.15R
AINSWORTH      MOSUNNY   71  63  76 N16G25    30.18R
BROKEN BOW     MOSUNNY   77  60  55 NE8       30.07F
O`NEILL        PTSUNNY   72  61  68 N13       30.11R
THEDFORD       MOSUNNY   76  62  60 NE10      30.15R
$$

NEZ041-046>049-061>064-073>077-083>087-221500-
SOUTH CENTRAL NEBRASKA

CITY           SKY/WX    TMP DP  RH WIND       PRES   REMARKS
GRAND ISLAND   SUNNY     79  64  60 NE9       30.07R
AURORA         SUNNY     79  67  65 NE9       30.05R
HASTINGS       MOSUNNY   79  63  57 N9        30.07R
HEBRON         SUNNY     83  69  62 W6        30.05R
HOLDREGE       PTSUNNY   75  64  68 E3        30.10R
KEARNEY *      MOSUNNY   79  63  57 NE10      30.09R
YORK           SUNNY     77  70  78 NE13      30.04R
$$

NEZ011>018-030>034-042>045-221500-
NORTHEAST NEBRASKA

CITY           SKY/WX    TMP DP  RH WIND       PRES   REMARKS
NORFOLK        PTSUNNY   77  62  59 N5        30.03R
ALBION         SUNNY     79  60  50 E6        30.05S
BLAIR          PTSUNNY   81  68  63 N10       29.98S
COLUMBUS *     MOSUNNY   79  64  61 N9        30.04R
FREMONT        PTSUNNY   82  74  76 N5        30.00S
TEKAMAH        CLOUDY    81  75  82 N8        29.97F
WAYNE          PTSUNNY   77  66  67 CALM      30.02R
$$

NEZ050>053-065>068-078-088>093-221500-
SOUTHEAST NEBRASKA

CITY           SKY/WX    TMP DP  RH WIND       PRES   REMARKS
LINCOLN        SUNNY     86  72  62 N7        30.01S HX  92
OMAHA EPPLEY   PTSUNNY   85  73  67 N9        29.98R HX  91
BEATRICE       SUNNY     78  71  78 W10       30.03S
FALLS CITY     MOSUNNY   82  75  79 SW6       30.01S
NEBRASKA CITY  SUNNY     82  72  72 W10       30.00R
PLATTSMOUTH    MOSUNNY   82  71  68 W6        29.99R
$$

NEZ044-045-051>053-067-221500-
OMAHA AREA

CITY           SKY/WX    TMP DP  RH WIND       PRES   REMARKS
OMAHA EPPLEY   PTSUNNY   85  73  67 N9        29.98R HX  91
BLAIR          PTSUNNY   81  68  63 N10       29.98S
FREMONT        PTSUNNY   82  74  76 N5        30.00S
MILLARD        PTSUNNY   84  74  71 N6        29.98S HX  91
OFFUTT AFB     PTSUNNY   82  75  78 NW3       29.97S
PLATTSMOUTH    MOSUNNY   82  71  68 W6        29.99R
WAHOO          FAIR      82  73  72 N7        29.99S
$$



USA.gov is the U.S. government's official web portal to all federal, state and local government web resources and services.